TimeEDT,TemperatureF,Dew PointF,Humidity,Sea Level PressureIn,VisibilityMPH,Wind Direction,Wind SpeedMPH,Gust SpeedMPH,PrecipitationIn,Events,Conditions,WindDirDegrees,DateUTC
12:16 AM,66.2,64.4,94,30.06,10.0,South,6.9,-,N/A,,Overcast,170,2013-04-19 04:16:00
12:28 AM,66.2,64.4,94,30.05,10.0,SSE,5.8,-,N/A,,Mostly Cloudy,150,2013-04-19 04:28:00
12:53 AM,66.0,64.0,93,30.03,10.0,SSE,6.9,-,N/A,,Mostly Cloudy,150,2013-04-19 04:53:00
1:22 AM,66.2,64.4,94,30.03,10.0,SE,6.9,-,N/A,,Mostly Cloudy,140,2013-04-19 05:22:00
1:31 AM,66.2,64.4,94,30.02,10.0,SE,6.9,-,N/A,,Mostly Cloudy,140,2013-04-19 05:31:00
1:41 AM,66.2,64.4,94,30.02,10.0,SE,5.8,-,N/A,,Mostly Cloudy,140,2013-04-19 05:41:00
1:51 AM,66.2,64.4,94,30.01,10.0,SSE,4.6,-,N/A,,Mostly Cloudy,150,2013-04-19 05:51:00
1:53 AM,66.0,64.0,93,30.00,10.0,SE,4.6,-,N/A,,Mostly Cloudy,140,2013-04-19 05:53:00
2:53 AM,66.9,64.9,93,29.96,9.0,SSE,9.2,-,N/A,,Overcast,150,2013-04-19 06:53:00
3:46 AM,68.0,66.2,94,29.97,10.0,South,8.1,-,N/A,,Overcast,170,2013-04-19 07:46:00
3:53 AM,68.0,66.0,93,29.95,9.0,SSE,8.1,-,N/A,,Overcast,160,2013-04-19 07:53:00
4:13 AM,68.0,66.2,94,29.96,10.0,South,5.8,-,N/A,,Overcast,170,2013-04-19 08:13:00
4:24 AM,68.0,66.2,94,29.96,10.0,South,6.9,-,N/A,,Overcast,170,2013-04-19 08:24:00
4:53 AM,69.1,66.0,90,29.93,10.0,South,9.2,-,N/A,,Overcast,180,2013-04-19 08:53:00
5:53 AM,70.0,66.0,87,29.93,10.0,South,8.1,-,N/A,,Overcast,190,2013-04-19 09:53:00
6:53 AM,69.1,66.0,90,29.94,10.0,South,11.5,17.3,N/A,,Overcast,180,2013-04-19 10:53:00
7:53 AM,70.0,66.0,87,29.95,10.0,South,12.7,-,N/A,,Overcast,180,2013-04-19 11:53:00
8:07 AM,69.8,66.2,88,29.96,10.0,South,12.7,19.6,N/A,,Overcast,190,2013-04-19 12:07:00
8:30 AM,71.6,66.2,83,29.97,10.0,SSW,12.7,-,N/A,,Overcast,200,2013-04-19 12:30:00
8:53 AM,72.0,66.9,84,29.94,10.0,South,12.7,19.6,N/A,,Overcast,180,2013-04-19 12:53:00
9:23 AM,73.4,66.2,78,29.96,10.0,South,15.0,20.7,N/A,,Mostly Cloudy,190,2013-04-19 13:23:00
9:33 AM,75.2,66.2,73,29.96,10.0,South,13.8,20.7,N/A,,Scattered Clouds,190,2013-04-19 13:33:00
9:48 AM,75.2,66.2,73,29.96,10.0,SSW,16.1,26.5,N/A,,Mostly Cloudy,200,2013-04-19 13:48:00
9:53 AM,75.9,66.9,74,29.94,10.0,South,21.9,33.4,N/A,,Mostly Cloudy,190,2013-04-19 13:53:00
10:53 AM,77.0,66.9,71,29.93,10.0,South,16.1,27.6,N/A,,Mostly Cloudy,190,2013-04-19 14:53:00
11:53 AM,80.1,66.0,62,29.91,10.0,SSW,19.6,26.5,N/A,,Mostly Cloudy,200,2013-04-19 15:53:00
12:02 PM,80.6,66.2,61,29.92,10.0,South,20.7,31.1,N/A,,Mostly Cloudy,190,2013-04-19 16:02:00
12:15 PM,82.4,66.2,58,29.91,10.0,South,21.9,36.8,N/A,,Mostly Cloudy,190,2013-04-19 16:15:00
12:53 PM,82.9,64.9,54,29.86,10.0,SSW,23.0,31.1,N/A,,Mostly Cloudy,200,2013-04-19 16:53:00
1:53 PM,84.9,64.9,51,29.83,10.0,South,18.4,31.1,N/A,,Scattered Clouds,190,2013-04-19 17:53:00
2:53 PM,84.0,66.0,55,29.80,10.0,South,26.5,33.4,N/A,,Mostly Cloudy,170,2013-04-19 18:53:00
3:53 PM,84.0,63.0,49,29.79,10.0,SSW,26.5,39.1,N/A,,Scattered Clouds,200,2013-04-19 19:53:00
4:53 PM,82.0,64.9,56,29.78,10.0,South,23.0,32.2,N/A,,Partly Cloudy,180,2013-04-19 20:53:00
5:53 PM,80.1,64.9,60,29.78,10.0,South,23.0,33.4,N/A,,Partly Cloudy,180,2013-04-19 21:53:00
6:53 PM,78.1,66.9,68,29.78,10.0,South,17.3,24.2,N/A,,Scattered Clouds,190,2013-04-19 22:53:00
7:36 PM,75.2,66.2,73,29.85,1.2,WSW,36.8,51.8,0.18,Rain,Light Rain,240,2013-04-19 23:36:00
7:41 PM,68.0,64.4,88,29.85,0.8,SW,21.9,51.8,0.21,Rain,Rain,230,2013-04-19 23:41:00
7:45 PM,68.0,64.4,88,29.85,1.0,SW,18.4,46.0,0.22,Rain,Light Rain,220,2013-04-19 23:45:00
7:47 PM,68.0,64.4,88,29.86,3.0,SW,19.6,29.9,0.22,Rain,Light Rain,220,2013-04-19 23:47:00
7:53 PM,68.0,64.9,90,29.84,5.0,SSW,18.4,27.6,0.24,Rain,Rain,210,2013-04-19 23:53:00
8:53 PM,66.0,64.0,93,29.85,6.0,SSW,11.5,-,0.10,Rain,Light Rain,200,2013-04-20 00:53:00
9:53 PM,66.9,64.9,93,29.84,10.0,SW,9.2,-,0.03,Rain,Light Rain,220,2013-04-20 01:53:00
10:00 PM,66.2,64.4,94,29.86,10.0,SSW,9.2,-,0.00,Rain,Light Rain,200,2013-04-20 02:00:00
10:53 PM,66.9,64.9,93,29.82,10.0,South,10.4,-,0.02,Rain,Light Rain,180,2013-04-20 02:53:00
11:25 PM,66.2,64.4,94,29.82,10.0,SSE,11.5,-,0.01,Rain,Light Rain,160,2013-04-20 03:25:00
11:53 PM,66.9,64.9,93,29.84,10.0,SSW,10.4,-,0.02,Rain,Light Rain,210,2013-04-20 03:53:00